Orbital Elements at Epoch 2459000.5 (2020-May-31.0) TDB
Reference: JPL 15 (heliocentric ecliptic J2000)
Element | Value | Uncertainty (1-sigma) | Units |
e | .1820419826579681 | 4.0661e-08 | |
a | 2.341727793675205 | 1.9899e-08 | au |
q | 1.915435023269302 | 9.8048e-08 | au |
i | 2.385916307881611 | 6.6939e-06 | deg |
node | 180.7702341556749 | 0.00011117 | deg |
peri | 93.82152488493929 | 0.00011329 | deg |
M | 354.3909527160934 | 2.4079e-05 | deg |
tp | 2459020.893400252951 (2020-Jun-20.39340025) | 8.7707e-05 | TDB |
period | 1308.889677597612 3.58 | 1.6683e-05 4.568e-08 | d yr |
n | .2750422790870795 | 3.5058e-09 | deg/d |
Q | 2.768020564081108 | 2.3521e-08 | au |
|
| | Orbit Determination Parameters
Additional Information
|